Time,TemperatureF,DewpointF,PressureIn,WindDirection,WindDirectionDegrees,WindSpeedMPH,WindSpeedGustMPH,Humidity,HourlyPrecipIn,Conditions,Clouds,dailyrainin,SoftwareType,DateUTC
2013-01-10 00:04:00,32.8,27.3,30.49,South,190,0.0,0.0,80,0.00,,,0.00,Wunderground v.1.15,2013-01-10 05:04:00,
2013-01-10 00:06:00,32.7,27.5,30.50,South,191,0.0,0.0,81,0.00,,,0.00,Wunderground v.1.15,2013-01-10 05:06:00,
2013-01-10 00:08:00,32.5,27.3,30.50,South,191,0.0,0.0,81,0.00,,,0.00,Wunderground v.1.15,2013-01-10 05:08:00,
2013-01-10 00:13:00,32.2,27.3,30.50,South,191,0.0,0.0,82,0.00,,,0.00,Wunderground v.1.15,2013-01-10 05:13:00,
2013-01-10 00:15:00,32.1,27.2,30.50,South,191,0.0,0.0,82,0.00,,,0.00,Wunderground v.1.15,2013-01-10 05:15:00,
2013-01-10 00:21:00,31.7,27.1,30.50,SSW,193,0.0,0.0,83,0.00,,,0.00,Wunderground v.1.15,2013-01-10 05:21:00,
2013-01-10 00:28:00,31.7,27.1,30.51,South,191,0.0,0.0,83,0.00,,,0.00,Wunderground v.1.15,2013-01-10 05:28:00,
2013-01-10 00:33:00,31.7,27.1,30.51,South,191,0.0,0.0,83,0.00,,,0.00,Wunderground v.1.15,2013-01-10 05:33:00,
2013-01-10 00:39:00,31.6,27.0,30.51,South,191,0.0,0.0,83,0.00,,,0.00,Wunderground v.1.15,2013-01-10 05:39:00,
2013-01-10 00:45:00,30.7,26.4,30.51,South,190,0.0,0.0,84,0.00,,,0.00,Wunderground v.1.15,2013-01-10 05:45:00,
2013-01-10 00:51:00,30.1,26.1,30.51,ESE,121,0.0,0.0,85,0.00,,,0.00,Wunderground v.1.15,2013-01-10 05:51:00,
2013-01-10 00:57:00,29.6,25.9,30.51,ESE,121,0.0,0.0,86,0.00,,,0.00,Wunderground v.1.15,2013-01-10 05:57:00,
2013-01-10 01:03:00,29.4,26.0,30.51,SSW,203,0.0,0.0,87,0.00,,,0.00,Wunderground v.1.15,2013-01-10 06:03:00,
2013-01-10 01:09:00,29.5,26.1,30.51,SSW,203,0.0,0.0,87,0.00,,,0.00,Wunderground v.1.15,2013-01-10 06:09:00,
2013-01-10 01:15:00,28.7,25.3,30.51,SSW,202,0.0,0.0,87,0.00,,,0.00,Wunderground v.1.15,2013-01-10 06:15:00,
2013-01-10 01:22:00,28.6,25.8,30.51,SSW,202,0.0,0.0,89,0.00,,,0.00,Wunderground v.1.15,2013-01-10 06:22:00,
2013-01-10 01:28:00,29.1,26.3,30.51,SSW,203,0.0,0.0,89,0.00,,,0.00,Wunderground v.1.15,2013-01-10 06:28:00,
2013-01-10 01:33:00,28.8,25.7,30.51,SSW,203,0.0,0.0,88,0.00,,,0.00,Wunderground v.1.15,2013-01-10 06:33:00,
2013-01-10 01:39:00,28.7,25.9,30.51,SSW,203,0.0,0.0,89,0.00,,,0.00,Wunderground v.1.15,2013-01-10 06:39:00,
2013-01-10 01:46:00,28.6,25.5,30.51,East,84,0.0,0.0,88,0.00,,,0.00,Wunderground v.1.15,2013-01-10 06:46:00,
2013-01-10 01:51:00,28.3,25.2,30.51,East,85,0.0,0.0,88,0.00,,,0.00,Wunderground v.1.15,2013-01-10 06:51:00,
2013-01-10 01:57:00,27.7,25.2,30.51,ENE,77,0.0,1.0,90,0.00,,,0.00,Wunderground v.1.15,2013-01-10 06:57:00,
2013-01-10 02:03:00,27.7,25.4,30.51,ENE,73,1.0,1.0,91,0.00,,,0.00,Wunderground v.1.15,2013-01-10 07:03:00,
2013-01-10 02:09:00,27.9,25.9,30.50,ENE,73,1.0,1.0,92,0.00,,,0.00,Wunderground v.1.15,2013-01-10 07:09:00,
2013-01-10 02:15:00,28.1,26.1,30.50,ENE,73,1.0,1.0,92,0.00,,,0.00,Wunderground v.1.15,2013-01-10 07:15:00,
2013-01-10 02:22:00,28.4,26.1,30.50,ENE,73,1.0,1.0,91,0.00,,,0.00,Wunderground v.1.15,2013-01-10 07:22:00,
2013-01-10 02:28:00,28.4,26.1,30.50,ENE,73,0.0,1.0,91,0.00,,,0.00,Wunderground v.1.15,2013-01-10 07:28:00,
2013-01-10 02:33:00,28.1,25.5,30.50,ENE,73,0.0,0.0,90,0.00,,,0.00,Wunderground v.1.15,2013-01-10 07:33:00,
2013-01-10 02:39:00,28.2,25.9,30.50,ENE,74,0.0,0.0,91,0.00,,,0.00,Wunderground v.1.15,2013-01-10 07:39:00,
2013-01-10 02:46:00,28.5,26.2,30.50,ENE,74,0.0,2.0,91,0.00,,,0.00,Wunderground v.1.15,2013-01-10 07:46:00,
2013-01-10 02:52:00,28.2,25.9,30.50,ENE,74,1.0,1.0,91,0.00,,,0.00,Wunderground v.1.15,2013-01-10 07:52:00,
2013-01-10 02:57:00,28.3,26.0,30.50,ENE,72,1.0,1.0,91,0.00,,,0.00,Wunderground v.1.15,2013-01-10 07:57:00,
2013-01-10 03:04:00,28.8,26.2,30.49,ENE,72,1.0,2.0,90,0.00,,,0.00,Wunderground v.1.15,2013-01-10 08:04:00,
2013-01-10 03:10:00,28.6,26.0,30.50,ENE,63,1.0,1.0,90,0.00,,,0.00,Wunderground v.1.15,2013-01-10 08:10:00,
2013-01-10 03:15:00,28.4,26.1,30.50,ENE,63,1.0,1.0,91,0.00,,,0.00,Wunderground v.1.15,2013-01-10 08:15:00,
2013-01-10 03:22:00,28.5,26.2,30.50,ENE,77,1.0,2.0,91,0.00,,,0.00,Wunderground v.1.15,2013-01-10 08:22:00,
2013-01-10 03:28:00,28.5,25.9,30.50,ENE,65,2.0,2.0,90,0.00,,,0.00,Wunderground v.1.15,2013-01-10 08:28:00,
2013-01-10 03:34:00,28.2,25.9,30.50,ENE,78,2.0,2.0,91,0.00,,,0.00,Wunderground v.1.15,2013-01-10 08:34:00,
2013-01-10 04:00:00,28.3,26.0,30.49,ENE,68,1.0,-999.0,91,0.00,,,0.03,Wunderground v.1.15,2013-01-10 09:00:00,
2013-01-10 04:05:00,27.7,25.2,30.49,ENE,68,2.0,-999.0,90,0.00,,,0.03,Wunderground v.1.15,2013-01-10 09:05:00,
2013-01-10 04:10:00,27.7,25.2,30.49,ENE,68,2.0,-999.0,90,0.00,,,0.03,Wunderground v.1.15,2013-01-10 09:10:00,
2013-01-10 04:15:00,28.1,25.5,30.49,East,90,2.0,-999.0,90,0.00,,,0.03,Wunderground v.1.15,2013-01-10 09:15:00,
2013-01-10 04:20:00,28.1,25.5,30.49,East,90,2.0,-999.0,90,0.00,,,0.03,Wunderground v.1.15,2013-01-10 09:20:00,
2013-01-10 04:25:00,29.0,26.2,30.49,East,90,1.0,-999.0,89,0.00,,,0.03,Wunderground v.1.15,2013-01-10 09:25:00,
2013-01-10 04:30:00,29.0,26.2,30.49,East,90,1.0,-999.0,89,0.00,,,0.03,Wunderground v.1.15,2013-01-10 09:30:00,
2013-01-10 04:35:00,28.6,25.2,30.49,SSW,203,1.0,-999.0,87,0.00,,,0.03,Wunderground v.1.15,2013-01-10 09:35:00,
2013-01-10 04:40:00,28.6,25.2,30.49,SSW,203,1.0,-999.0,87,0.00,,,0.03,Wunderground v.1.15,2013-01-10 09:40:00,
2013-01-10 04:45:00,27.1,24.3,30.49,SSW,203,0.0,-999.0,89,0.00,,,0.03,Wunderground v.1.15,2013-01-10 09:45:00,
2013-01-10 04:50:00,27.1,24.3,30.49,SSW,203,0.0,-999.0,89,0.00,,,0.03,Wunderground v.1.15,2013-01-10 09:50:00,
2013-01-10 04:55:00,26.4,24.1,30.49,NE,45,0.0,-999.0,91,0.00,,,0.03,Wunderground v.1.15,2013-01-10 09:55:00,
2013-01-10 05:00:00,26.4,24.1,30.49,NE,45,0.0,-999.0,91,0.00,,,0.03,Wunderground v.1.15,2013-01-10 10:00:00,
2013-01-10 05:05:00,26.4,24.7,30.48,NE,45,2.0,-999.0,93,0.00,,,0.03,Wunderground v.1.15,2013-01-10 10:05:00,
2013-01-10 05:10:00,26.4,24.7,30.48,NE,45,2.0,-999.0,93,0.00,,,0.03,Wunderground v.1.15,2013-01-10 10:10:00,
2013-01-10 05:15:00,26.9,25.1,30.49,ENE,68,2.0,-999.0,93,0.00,,,0.03,Wunderground v.1.15,2013-01-10 10:15:00,
2013-01-10 05:20:00,26.9,25.1,30.49,ENE,68,2.0,-999.0,93,0.00,,,0.03,Wunderground v.1.15,2013-01-10 10:20:00,
2013-01-10 05:25:00,26.6,24.6,30.49,ENE,68,0.0,-999.0,92,0.00,,,0.03,Wunderground v.1.15,2013-01-10 10:25:00,
2013-01-10 05:30:00,26.6,24.6,30.49,ENE,68,0.0,-999.0,92,0.00,,,0.03,Wunderground v.1.15,2013-01-10 10:30:00,
2013-01-10 05:35:00,26.3,24.3,30.48,ENE,68,1.0,-999.0,92,0.00,,,0.03,Wunderground v.1.15,2013-01-10 10:35:00,
2013-01-10 05:40:00,26.3,24.3,30.48,ENE,68,1.0,-999.0,92,0.00,,,0.03,Wunderground v.1.15,2013-01-10 10:40:00,
2013-01-10 05:45:00,26.1,24.1,30.48,ENE,68,1.0,-999.0,92,0.00,,,0.03,Wunderground v.1.15,2013-01-10 10:45:00,
2013-01-10 05:50:00,26.1,24.1,30.48,ENE,68,1.0,-999.0,92,0.00,,,0.03,Wunderground v.1.15,2013-01-10 10:50:00,
2013-01-10 05:55:00,25.7,24.0,30.49,ENE,68,1.0,-999.0,93,0.00,,,0.03,Wunderground v.1.15,2013-01-10 10:55:00,
2013-01-10 06:00:00,25.7,24.0,30.49,ENE,68,1.0,-999.0,93,0.00,,,0.03,Wunderground v.1.15,2013-01-10 11:00:00,
2013-01-10 06:05:00,25.8,24.1,30.49,ENE,68,0.0,-999.0,93,0.00,,,0.03,Wunderground v.1.15,2013-01-10 11:05:00,
2013-01-10 06:10:00,25.8,24.1,30.49,ENE,68,0.0,-999.0,93,0.00,,,0.03,Wunderground v.1.15,2013-01-10 11:10:00,
2013-01-10 06:15:00,26.2,24.5,30.49,ENE,68,0.0,-999.0,93,0.00,,,0.03,Wunderground v.1.15,2013-01-10 11:15:00,
2013-01-10 06:20:00,26.2,24.5,30.49,ENE,68,0.0,-999.0,93,0.00,,,0.03,Wunderground v.1.15,2013-01-10 11:20:00,
2013-01-10 06:25:00,26.1,24.4,30.49,ENE,68,0.0,-999.0,93,0.00,,,0.03,Wunderground v.1.15,2013-01-10 11:25:00,
2013-01-10 06:30:00,26.1,24.4,30.49,ENE,68,0.0,-999.0,93,0.00,,,0.03,Wunderground v.1.15,2013-01-10 11:30:00,
2013-01-10 06:35:00,26.9,25.4,30.49,ENE,68,0.0,-999.0,94,0.00,,,0.03,Wunderground v.1.15,2013-01-10 11:35:00,
2013-01-10 06:40:00,26.9,25.4,30.49,ENE,68,0.0,-999.0,94,0.00,,,0.03,Wunderground v.1.15,2013-01-10 11:40:00,
2013-01-10 06:45:00,26.8,24.8,30.50,ENE,68,1.0,-999.0,92,0.00,,,0.03,Wunderground v.1.15,2013-01-10 11:45:00,
2013-01-10 06:50:00,26.8,24.8,30.50,ENE,68,1.0,-999.0,92,0.00,,,0.03,Wunderground v.1.15,2013-01-10 11:50:00,
2013-01-10 06:55:00,27.0,25.0,30.50,ENE,68,0.0,-999.0,92,0.00,,,0.03,Wunderground v.1.15,2013-01-10 11:55:00,
2013-01-10 07:00:00,27.0,25.0,30.50,ENE,68,0.0,-999.0,92,0.00,,,0.03,Wunderground v.1.15,2013-01-10 12:00:00,
2013-01-10 07:05:00,26.8,24.8,30.50,ENE,68,1.0,-999.0,92,0.00,,,0.03,Wunderground v.1.15,2013-01-10 12:05:00,
2013-01-10 07:10:00,26.8,24.8,30.50,ENE,68,1.0,-999.0,92,0.00,,,0.03,Wunderground v.1.15,2013-01-10 12:10:00,
2013-01-10 07:15:00,26.5,24.5,30.50,ENE,68,0.0,-999.0,92,0.00,,,0.03,Wunderground v.1.15,2013-01-10 12:15:00,
2013-01-10 07:20:00,26.5,24.5,30.50,ENE,68,0.0,-999.0,92,0.00,,,0.03,Wunderground v.1.15,2013-01-10 12:20:00,
2013-01-10 07:25:00,26.2,24.2,30.50,ENE,68,1.0,-999.0,92,0.00,,,0.03,Wunderground v.1.15,2013-01-10 12:25:00,
2013-01-10 07:30:00,26.2,24.2,30.50,ENE,68,1.0,-999.0,92,0.00,,,0.03,Wunderground v.1.15,2013-01-10 12:30:00,
2013-01-10 07:35:00,26.0,24.0,30.50,ENE,68,1.0,-999.0,92,0.00,,,0.03,Wunderground v.1.15,2013-01-10 12:35:00,
2013-01-10 07:40:00,26.0,24.0,30.50,ENE,68,1.0,-999.0,92,0.00,,,0.03,Wunderground v.1.15,2013-01-10 12:40:00,
2013-01-10 07:45:00,26.0,24.3,30.49,ENE,68,1.0,-999.0,93,0.00,,,0.03,Wunderground v.1.15,2013-01-10 12:45:00,
2013-01-10 07:50:00,26.0,24.3,30.49,ENE,68,1.0,-999.0,93,0.00,,,0.03,Wunderground v.1.15,2013-01-10 12:50:00,
2013-01-10 07:55:00,26.4,24.7,30.50,ENE,68,1.0,-999.0,93,0.00,,,0.03,Wunderground v.1.15,2013-01-10 12:55:00,
2013-01-10 08:00:00,26.4,24.7,30.50,ENE,68,1.0,-999.0,93,0.00,,,0.03,Wunderground v.1.15,2013-01-10 13:00:00,
2013-01-10 08:05:00,27.0,25.2,30.49,ENE,68,1.0,-999.0,93,0.00,,,0.03,Wunderground v.1.15,2013-01-10 13:05:00,
2013-01-10 08:10:00,27.0,25.2,30.49,ENE,68,1.0,-999.0,93,0.00,,,0.03,Wunderground v.1.15,2013-01-10 13:10:00,
2013-01-10 08:15:00,27.7,25.4,30.49,ENE,68,1.0,-999.0,91,0.00,,,0.03,Wunderground v.1.15,2013-01-10 13:15:00,
2013-01-10 08:20:00,27.7,25.4,30.49,ENE,68,1.0,-999.0,91,0.00,,,0.03,Wunderground v.1.15,2013-01-10 13:20:00,
2013-01-10 08:25:00,27.7,25.4,30.49,ENE,68,1.0,-999.0,91,0.00,,,0.03,Wunderground v.1.15,2013-01-10 13:25:00,
2013-01-10 08:30:00,27.7,25.4,30.49,ENE,68,1.0,-999.0,91,0.00,,,0.03,Wunderground v.1.15,2013-01-10 13:30:00,
2013-01-10 08:35:00,28.1,25.8,30.49,NE,45,3.0,-999.0,91,0.00,,,0.03,Wunderground v.1.15,2013-01-10 13:35:00,
2013-01-10 08:40:00,28.1,25.8,30.49,NE,45,3.0,-999.0,91,0.00,,,0.03,Wunderground v.1.15,2013-01-10 13:40:00,
2013-01-10 08:45:00,28.8,26.5,30.49,ENE,68,3.0,-999.0,91,0.00,,,0.03,Wunderground v.1.15,2013-01-10 13:45:00,
2013-01-10 08:50:00,28.8,26.5,30.49,ENE,68,3.0,-999.0,91,0.00,,,0.03,Wunderground v.1.15,2013-01-10 13:50:00,
2013-01-10 08:55:00,29.5,26.7,30.49,ENE,68,0.0,-999.0,89,0.00,,,0.03,Wunderground v.1.15,2013-01-10 13:55:00,
2013-01-10 09:00:00,29.5,26.7,30.49,ENE,68,0.0,-999.0,89,0.00,,,0.03,Wunderground v.1.15,2013-01-10 14:00:00,
2013-01-10 09:05:00,30.2,27.1,30.49,ENE,68,2.0,-999.0,88,0.00,,,0.03,Wunderground v.1.15,2013-01-10 14:05:00,
2013-01-10 09:10:00,30.2,27.1,30.49,ENE,68,2.0,-999.0,88,0.00,,,0.03,Wunderground v.1.15,2013-01-10 14:10:00,
2013-01-10 09:15:00,30.8,27.7,30.49,ENE,68,3.0,-999.0,88,0.00,,,0.03,Wunderground v.1.15,2013-01-10 14:15:00,
2013-01-10 09:20:00,30.8,27.7,30.49,ENE,68,3.0,-999.0,88,0.00,,,0.03,Wunderground v.1.15,2013-01-10 14:20:00,
2013-01-10 09:25:00,31.0,28.1,30.48,ENE,68,5.0,-999.0,89,0.00,,,0.03,Wunderground v.1.15,2013-01-10 14:25:00,
2013-01-10 09:30:00,31.0,28.1,30.48,ENE,68,5.0,-999.0,89,0.00,,,0.03,Wunderground v.1.15,2013-01-10 14:30:00,
2013-01-10 09:35:00,31.7,28.3,30.48,ENE,68,6.0,-999.0,87,0.00,,,0.03,Wunderground v.1.15,2013-01-10 14:35:00,
2013-01-10 09:40:00,31.7,28.3,30.48,ENE,68,6.0,-999.0,87,0.00,,,0.03,Wunderground v.1.15,2013-01-10 14:40:00,
2013-01-10 09:45:00,32.4,28.7,30.48,ENE,68,3.0,-999.0,86,0.00,,,0.03,Wunderground v.1.15,2013-01-10 14:45:00,
2013-01-10 09:50:00,32.4,28.7,30.48,ENE,68,3.0,-999.0,86,0.00,,,0.03,Wunderground v.1.15,2013-01-10 14:50:00,
2013-01-10 09:55:00,32.9,29.2,30.48,ENE,68,2.0,-999.0,86,0.00,,,0.03,Wunderground v.1.15,2013-01-10 14:55:00,
2013-01-10 10:00:00,32.9,29.2,30.48,ENE,68,2.0,-999.0,86,0.00,,,0.03,Wunderground v.1.15,2013-01-10 15:00:00,
2013-01-10 10:05:00,33.1,29.1,30.48,ENE,68,3.0,-999.0,85,0.00,,,0.03,Wunderground v.1.15,2013-01-10 15:05:00,
2013-01-10 10:10:00,33.1,29.1,30.48,ENE,68,3.0,-999.0,85,0.00,,,0.03,Wunderground v.1.15,2013-01-10 15:10:00,
2013-01-10 10:15:00,33.2,29.5,30.48,ENE,68,5.0,-999.0,86,0.00,,,0.03,Wunderground v.1.15,2013-01-10 15:15:00,
2013-01-10 10:20:00,33.2,29.5,30.48,ENE,68,5.0,-999.0,86,0.00,,,0.03,Wunderground v.1.15,2013-01-10 15:20:00,
2013-01-10 10:25:00,33.5,29.5,30.48,ENE,68,3.0,-999.0,85,0.00,,,0.03,Wunderground v.1.15,2013-01-10 15:25:00,
2013-01-10 10:30:00,33.5,29.5,30.48,ENE,68,3.0,-999.0,85,0.00,,,0.03,Wunderground v.1.15,2013-01-10 15:30:00,
2013-01-10 10:35:00,34.0,30.0,30.48,ENE,68,3.0,-999.0,85,0.00,,,0.03,Wunderground v.1.15,2013-01-10 15:35:00,
2013-01-10 10:40:00,34.0,30.0,30.48,ENE,68,3.0,-999.0,85,0.00,,,0.03,Wunderground v.1.15,2013-01-10 15:40:00,
2013-01-10 10:45:00,34.4,29.8,30.48,ENE,68,5.0,-999.0,83,0.00,,,0.03,Wunderground v.1.15,2013-01-10 15:45:00,
2013-01-10 10:50:00,34.4,29.8,30.48,ENE,68,5.0,-999.0,83,0.00,,,0.03,Wunderground v.1.15,2013-01-10 15:50:00,
2013-01-10 10:55:00,34.6,30.3,30.48,ENE,68,4.0,-999.0,84,0.00,,,0.03,Wunderground v.1.15,2013-01-10 15:55:00,
2013-01-10 11:00:00,34.6,30.3,30.48,ENE,68,4.0,-999.0,84,0.00,,,0.03,Wunderground v.1.15,2013-01-10 16:00:00,
2013-01-10 11:05:00,34.6,30.3,30.47,ENE,68,4.0,-999.0,84,0.00,,,0.03,Wunderground v.1.15,2013-01-10 16:05:00,
2013-01-10 11:10:00,34.6,30.3,30.47,ENE,68,4.0,-999.0,84,0.00,,,0.03,Wunderground v.1.15,2013-01-10 16:10:00,
2013-01-10 11:15:00,34.7,30.4,30.48,ENE,68,4.0,-999.0,84,0.00,,,0.03,Wunderground v.1.15,2013-01-10 16:15:00,
2013-01-10 11:20:00,34.7,30.4,30.48,ENE,68,4.0,-999.0,84,0.00,,,0.03,Wunderground v.1.15,2013-01-10 16:20:00,
2013-01-10 11:25:00,35.1,30.5,30.47,ENE,68,4.0,-999.0,83,0.00,,,0.03,Wunderground v.1.15,2013-01-10 16:25:00,
2013-01-10 11:30:00,35.1,30.5,30.47,ENE,68,4.0,-999.0,83,0.00,,,0.03,Wunderground v.1.15,2013-01-10 16:30:00,
2013-01-10 11:35:00,35.4,30.8,30.46,ENE,68,5.0,-999.0,83,0.00,,,0.03,Wunderground v.1.15,2013-01-10 16:35:00,
2013-01-10 11:40:00,35.4,30.8,30.46,ENE,68,5.0,-999.0,83,0.00,,,0.03,Wunderground v.1.15,2013-01-10 16:40:00,
2013-01-10 11:45:00,35.7,31.0,30.46,ENE,68,3.0,-999.0,83,0.00,,,0.03,Wunderground v.1.15,2013-01-10 16:45:00,
2013-01-10 11:50:00,35.7,31.0,30.46,ENE,68,3.0,-999.0,83,0.00,,,0.03,Wunderground v.1.15,2013-01-10 16:50:00,
2013-01-10 11:55:00,35.7,31.0,30.45,ENE,68,5.0,-999.0,83,0.00,,,0.03,Wunderground v.1.15,2013-01-10 16:55:00,
2013-01-10 12:00:00,35.7,31.0,30.45,ENE,68,5.0,-999.0,83,0.00,,,0.03,Wunderground v.1.15,2013-01-10 17:00:00,
2013-01-10 12:05:00,35.9,31.2,30.44,ENE,68,4.0,-999.0,83,0.00,,,0.03,Wunderground v.1.15,2013-01-10 17:05:00,
2013-01-10 12:10:00,35.9,31.2,30.44,ENE,68,4.0,-999.0,83,0.00,,,0.03,Wunderground v.1.15,2013-01-10 17:10:00,
2013-01-10 12:15:00,36.1,31.4,30.43,ENE,68,5.0,-999.0,83,0.00,,,0.03,Wunderground v.1.15,2013-01-10 17:15:00,
2013-01-10 12:20:00,36.1,31.4,30.43,ENE,68,5.0,-999.0,83,0.00,,,0.03,Wunderground v.1.15,2013-01-10 17:20:00,
2013-01-10 12:25:00,36.3,31.6,30.43,ENE,68,4.0,-999.0,83,0.00,,,0.03,Wunderground v.1.15,2013-01-10 17:25:00,
2013-01-10 12:30:00,36.3,31.6,30.43,ENE,68,4.0,-999.0,83,0.00,,,0.03,Wunderground v.1.15,2013-01-10 17:30:00,
2013-01-10 12:35:00,36.7,31.7,30.42,ENE,68,3.0,-999.0,82,0.00,,,0.03,Wunderground v.1.15,2013-01-10 17:35:00,
2013-01-10 12:40:00,36.7,31.7,30.42,ENE,68,3.0,-999.0,82,0.00,,,0.03,Wunderground v.1.15,2013-01-10 17:40:00,
2013-01-10 12:45:00,36.9,31.6,30.42,ENE,68,4.0,-999.0,81,0.00,,,0.03,Wunderground v.1.15,2013-01-10 17:45:00,
2013-01-10 12:50:00,36.9,31.6,30.42,ENE,68,4.0,-999.0,81,0.00,,,0.03,Wunderground v.1.15,2013-01-10 17:50:00,
2013-01-10 12:55:00,36.9,31.9,30.40,ENE,68,4.0,-999.0,82,0.00,,,0.03,Wunderground v.1.15,2013-01-10 17:55:00,
2013-01-10 13:00:00,36.9,31.9,30.40,ENE,68,4.0,-999.0,82,0.00,,,0.03,Wunderground v.1.15,2013-01-10 18:00:00,
2013-01-10 13:05:00,36.5,31.5,30.38,ENE,68,7.0,-999.0,82,0.00,,,0.03,Wunderground v.1.15,2013-01-10 18:05:00,
2013-01-10 13:10:00,36.5,31.5,30.38,ENE,68,7.0,-999.0,82,0.00,,,0.03,Wunderground v.1.15,2013-01-10 18:10:00,
2013-01-10 13:15:00,36.7,32.0,30.38,ENE,68,4.0,-999.0,83,0.00,,,0.03,Wunderground v.1.15,2013-01-10 18:15:00,
2013-01-10 13:20:00,36.7,32.0,30.38,ENE,68,4.0,-999.0,83,0.00,,,0.03,Wunderground v.1.15,2013-01-10 18:20:00,
2013-01-10 13:25:00,37.0,32.0,30.38,ENE,68,4.0,-999.0,82,0.00,,,0.03,Wunderground v.1.15,2013-01-10 18:25:00,
2013-01-10 13:30:00,37.0,32.0,30.38,ENE,68,4.0,-999.0,82,0.00,,,0.03,Wunderground v.1.15,2013-01-10 18:30:00,
2013-01-10 13:35:00,37.1,32.1,30.38,ENE,68,4.0,-999.0,82,0.00,,,0.03,Wunderground v.1.15,2013-01-10 18:35:00,
2013-01-10 13:40:00,37.1,32.1,30.38,ENE,68,4.0,-999.0,82,0.00,,,0.03,Wunderground v.1.15,2013-01-10 18:40:00,
2013-01-10 13:45:00,37.2,32.2,30.38,ENE,68,3.0,-999.0,82,0.00,,,0.03,Wunderground v.1.15,2013-01-10 18:45:00,
2013-01-10 13:50:00,37.2,32.2,30.38,ENE,68,3.0,-999.0,82,0.00,,,0.03,Wunderground v.1.15,2013-01-10 18:50:00,
2013-01-10 13:55:00,37.2,32.5,30.36,ENE,68,4.0,-999.0,83,0.00,,,0.03,Wunderground v.1.15,2013-01-10 18:55:00,
2013-01-10 14:00:00,37.2,32.5,30.36,ENE,68,4.0,-999.0,83,0.00,,,0.03,Wunderground v.1.15,2013-01-10 19:00:00,
2013-01-10 14:05:00,37.5,32.8,30.36,ENE,68,4.0,-999.0,83,0.00,,,0.03,Wunderground v.1.15,2013-01-10 19:05:00,
2013-01-10 14:10:00,37.5,32.8,30.36,ENE,68,4.0,-999.0,83,0.00,,,0.03,Wunderground v.1.15,2013-01-10 19:10:00,
2013-01-10 14:15:00,37.3,32.9,30.35,ENE,68,5.0,-999.0,84,0.00,,,0.03,Wunderground v.1.15,2013-01-10 19:15:00,
2013-01-10 14:20:00,37.3,32.9,30.35,ENE,68,5.0,-999.0,84,0.00,,,0.03,Wunderground v.1.15,2013-01-10 19:20:00,
2013-01-10 14:25:00,37.1,33.0,30.35,ENE,68,7.0,-999.0,85,0.00,,,0.03,Wunderground v.1.15,2013-01-10 19:25:00,
2013-01-10 14:30:00,37.1,33.0,30.35,ENE,68,7.0,-999.0,85,0.00,,,0.03,Wunderground v.1.15,2013-01-10 19:30:00,
2013-01-10 14:35:00,37.7,33.0,30.34,ENE,68,4.0,-999.0,83,0.00,,,0.03,Wunderground v.1.15,2013-01-10 19:35:00,
2013-01-10 14:40:00,37.7,33.0,30.34,ENE,68,4.0,-999.0,83,0.00,,,0.03,Wunderground v.1.15,2013-01-10 19:40:00,
2013-01-10 14:45:00,38.0,32.7,30.33,ENE,68,4.0,-999.0,81,0.00,,,0.03,Wunderground v.1.15,2013-01-10 19:45:00,
2013-01-10 14:50:00,38.0,32.7,30.33,ENE,68,4.0,-999.0,81,0.00,,,0.03,Wunderground v.1.15,2013-01-10 19:50:00,
2013-01-10 20:44:00,36.1,34.0,30.16,East,98,5.0,5.0,92,0.00,,,0.03,Wunderground v.1.15,2013-01-11 01:44:00,
2013-01-10 20:45:00,36.1,34.0,30.15,ENE,68,5.0,-999.0,92,0.01,,,0.06,Wunderground v.1.15,2013-01-11 01:45:00,
2013-01-10 20:50:00,36.1,34.0,30.15,ENE,68,5.0,-999.0,92,0.01,,,0.06,Wunderground v.1.15,2013-01-11 01:50:00,
2013-01-10 20:55:00,36.1,34.3,30.15,ENE,68,3.0,-999.0,93,0.01,,,0.06,Wunderground v.1.15,2013-01-11 01:55:00,
2013-01-10 21:00:00,36.1,34.3,30.15,ENE,68,3.0,-999.0,93,0.01,,,0.06,Wunderground v.1.15,2013-01-11 02:00:00,
2013-01-10 21:04:00,36.2,34.4,30.14,ENE,62,4.0,4.0,93,0.00,,,0.03,Wunderground v.1.15,2013-01-11 02:04:00,
2013-01-10 21:05:00,36.2,34.4,30.14,ENE,68,4.0,-999.0,93,0.02,,,0.06,Wunderground v.1.15,2013-01-11 02:05:00,
2013-01-10 21:10:00,36.2,34.4,30.14,ENE,78,4.0,8.0,93,0.00,,,0.04,Wunderground v.1.15,2013-01-11 02:10:00,
2013-01-10 21:15:00,36.1,34.5,30.13,ENE,68,5.0,-999.0,94,0.03,,,0.06,Wunderground v.1.15,2013-01-11 02:15:00,
2013-01-10 21:16:00,36.1,34.3,30.14,NE,51,5.0,6.0,93,0.08,,,0.05,Wunderground v.1.15,2013-01-11 02:16:00,
2013-01-10 21:20:00,36.1,34.5,30.13,ENE,68,5.0,-999.0,94,0.03,,,0.06,Wunderground v.1.15,2013-01-11 02:20:00,
2013-01-10 21:22:00,36.1,34.5,30.13,ENE,76,5.0,6.0,94,0.08,,,0.05,Wunderground v.1.15,2013-01-11 02:22:00,
2013-01-10 21:25:00,36.1,34.5,30.13,ENE,68,5.0,-999.0,94,0.02,,,0.06,Wunderground v.1.15,2013-01-11 02:25:00,
2013-01-10 21:28:00,36.1,34.5,30.13,ENE,63,5.0,5.0,94,0.05,,,0.05,Wunderground v.1.15,2013-01-11 02:28:00,
2013-01-10 21:30:00,36.1,34.5,30.13,ENE,68,5.0,-999.0,94,0.02,,,0.06,Wunderground v.1.15,2013-01-11 02:30:00,
2013-01-10 21:34:00,36.1,34.5,30.12,ENE,73,5.0,5.0,94,0.00,,,0.05,Wunderground v.1.15,2013-01-11 02:34:00,
2013-01-10 21:35:00,36.2,34.9,30.12,ENE,68,5.0,-999.0,95,0.02,,,0.06,Wunderground v.1.15,2013-01-11 02:35:00,
2013-01-10 21:40:00,36.2,34.9,30.12,ENE,61,5.0,7.0,95,0.00,,,0.05,Wunderground v.1.15,2013-01-11 02:40:00,
2013-01-10 21:45:00,36.4,35.1,30.12,ENE,68,5.0,-999.0,95,0.02,,,0.06,Wunderground v.1.15,2013-01-11 02:45:00,
2013-01-10 21:46:00,36.4,35.1,30.12,East,87,5.0,6.0,95,0.00,,,0.05,Wunderground v.1.15,2013-01-11 02:46:00,
2013-01-10 21:50:00,36.4,35.1,30.12,ENE,68,5.0,-999.0,95,0.02,,,0.06,Wunderground v.1.15,2013-01-11 02:50:00,
2013-01-10 21:52:00,36.5,35.2,30.11,East,82,4.0,6.0,95,0.00,,,0.05,Wunderground v.1.15,2013-01-11 02:52:00,
2013-01-10 21:55:00,36.5,35.2,30.11,ENE,68,4.0,-999.0,95,0.02,,,0.06,Wunderground v.1.15,2013-01-11 02:55:00,
2013-01-10 21:57:00,36.5,35.2,30.11,East,79,4.0,4.0,95,0.00,,,0.05,Wunderground v.1.15,2013-01-11 02:57:00,
2013-01-10 22:00:00,36.5,35.2,30.11,ENE,68,4.0,-999.0,95,0.02,,,0.06,Wunderground v.1.15,2013-01-11 03:00:00,
2013-01-10 22:04:00,36.6,35.3,30.11,East,87,5.0,7.0,95,0.00,,,0.05,Wunderground v.1.15,2013-01-11 03:04:00,
2013-01-10 22:05:00,36.6,35.3,30.10,ENE,68,5.0,-999.0,95,0.01,,,0.06,Wunderground v.1.15,2013-01-11 03:05:00,
2013-01-10 22:10:00,36.6,35.3,30.10,East,84,5.0,5.0,95,0.00,,,0.05,Wunderground v.1.15,2013-01-11 03:10:00,
2013-01-10 22:15:00,36.9,35.6,30.10,ENE,68,4.0,-999.0,95,0.00,,,0.06,Wunderground v.1.15,2013-01-11 03:15:00,
2013-01-10 22:16:00,36.8,35.5,30.10,ENE,61,4.0,5.0,95,0.00,,,0.05,Wunderground v.1.15,2013-01-11 03:16:00,
2013-01-10 22:20:00,36.9,35.6,30.10,ENE,68,4.0,-999.0,95,0.00,,,0.06,Wunderground v.1.15,2013-01-11 03:20:00,
2013-01-10 22:24:00,37.0,35.7,30.10,East,98,5.0,5.0,95,0.00,,,0.05,Wunderground v.1.15,2013-01-11 03:24:00,
2013-01-10 22:25:00,37.2,35.9,30.09,ENE,68,5.0,-999.0,95,0.00,,,0.06,Wunderground v.1.15,2013-01-11 03:25:00,
2013-01-10 22:30:00,37.2,35.9,30.09,ENE,72,5.0,5.0,95,0.00,,,0.05,Wunderground v.1.15,2013-01-11 03:30:00,
2013-01-10 22:35:00,37.3,36.0,30.08,ENE,68,4.0,-999.0,95,0.00,,,0.06,Wunderground v.1.15,2013-01-11 03:35:00,
2013-01-10 22:36:00,37.3,36.0,30.09,East,87,4.0,5.0,95,0.00,,,0.05,Wunderground v.1.15,2013-01-11 03:36:00,
2013-01-10 22:40:00,37.3,36.0,30.08,ENE,68,4.0,-999.0,95,0.00,,,0.06,Wunderground v.1.15,2013-01-11 03:40:00,
2013-01-10 22:42:00,37.4,36.1,30.08,ESE,117,4.0,4.0,95,0.00,,,0.05,Wunderground v.1.15,2013-01-11 03:42:00,
2013-01-10 22:45:00,37.3,36.0,30.08,ENE,68,5.0,-999.0,95,0.00,,,0.06,Wunderground v.1.15,2013-01-11 03:45:00,
2013-01-10 22:47:00,37.3,36.0,30.08,ENE,75,5.0,5.0,95,0.00,,,0.05,Wunderground v.1.15,2013-01-11 03:47:00,
2013-01-10 22:50:00,37.3,36.0,30.08,ENE,68,5.0,-999.0,95,0.00,,,0.06,Wunderground v.1.15,2013-01-11 03:50:00,
2013-01-10 22:54:00,37.3,36.0,30.08,East,86,4.0,7.0,95,0.00,,,0.05,Wunderground v.1.15,2013-01-11 03:54:00,
2013-01-10 22:55:00,37.3,36.0,30.07,ENE,68,5.0,-999.0,95,0.00,,,0.06,Wunderground v.1.15,2013-01-11 03:55:00,
2013-01-10 23:00:00,37.3,36.0,30.08,ENE,59,5.0,5.0,95,0.00,,,0.05,Wunderground v.1.15,2013-01-11 04:00:00,
2013-01-10 23:05:00,37.6,36.0,30.08,ENE,68,4.0,-999.0,94,0.00,,,0.06,Wunderground v.1.15,2013-01-11 04:05:00,
2013-01-10 23:06:00,37.6,36.0,30.08,East,84,5.0,5.0,94,0.00,,,0.05,Wunderground v.1.15,2013-01-11 04:06:00,
2013-01-10 23:10:00,37.6,36.0,30.08,ENE,68,4.0,-999.0,94,0.00,,,0.06,Wunderground v.1.15,2013-01-11 04:10:00,
2013-01-10 23:12:00,37.6,36.0,30.08,ENE,68,4.0,6.0,94,0.00,,,0.05,Wunderground v.1.15,2013-01-11 04:12:00,
2013-01-10 23:15:00,37.7,36.1,30.07,ENE,68,4.0,-999.0,94,0.00,,,0.06,Wunderground v.1.15,2013-01-11 04:15:00,
2013-01-10 23:18:00,37.7,36.1,30.07,East,84,4.0,6.0,94,0.00,,,0.05,Wunderground v.1.15,2013-01-11 04:18:00,
2013-01-10 23:20:00,37.7,36.1,30.07,ENE,68,4.0,-999.0,94,0.00,,,0.06,Wunderground v.1.15,2013-01-11 04:20:00,
2013-01-10 23:24:00,37.7,36.1,30.07,ENE,61,4.0,4.0,94,0.00,,,0.05,Wunderground v.1.15,2013-01-11 04:24:00,
2013-01-10 23:25:00,37.7,35.9,30.07,ENE,68,3.0,-999.0,93,0.00,,,0.06,Wunderground v.1.15,2013-01-11 04:25:00,
2013-01-10 23:30:00,37.7,35.9,30.07,East,87,3.0,3.0,93,0.00,,,0.05,Wunderground v.1.15,2013-01-11 04:30:00,
2013-01-10 23:35:00,37.8,36.0,30.07,ENE,65,3.0,5.0,93,0.00,,,0.05,Wunderground v.1.15,2013-01-11 04:35:00,
2013-01-10 23:40:00,37.9,36.1,30.06,ENE,68,3.0,-999.0,93,0.00,,,0.06,Wunderground v.1.15,2013-01-11 04:40:00,
2013-01-10 23:42:00,37.9,36.1,30.06,East,98,3.0,3.0,93,0.00,,,0.05,Wunderground v.1.15,2013-01-11 04:42:00,
2013-01-10 23:45:00,37.8,35.7,30.06,ENE,68,3.0,-999.0,92,0.00,,,0.06,Wunderground v.1.15,2013-01-11 04:45:00,
2013-01-10 23:48:00,37.9,35.8,30.06,ENE,63,3.0,4.0,92,0.00,,,0.05,Wunderground v.1.15,2013-01-11 04:48:00,
2013-01-10 23:50:00,37.8,35.7,30.06,ENE,68,3.0,-999.0,92,0.00,,,0.06,Wunderground v.1.15,2013-01-11 04:50:00,
2013-01-10 23:54:00,37.6,35.5,30.06,ENE,68,3.0,3.0,92,0.00,,,0.05,Wunderground v.1.15,2013-01-11 04:54:00,
2013-01-10 23:55:00,37.3,35.2,30.06,ENE,68,3.0,-999.0,92,0.01,,,0.06,Wunderground v.1.15,2013-01-11 04:55:00,